Location: Unspecified
(0.0000°N, 0.0000°E)
Time: 16:11:59
(UTC+00:00)

Vanguard 2 Rocket - Visible Passes

Search period start: 29 July 2015 00:00
Search period end: 08 August 2015 00:00
Orbit: 556 x 3330 km, 32.9° (Epoch: 28 July)

Date Brightness Start Highest point End Pass type
(mag) Time Alt. Az. Time Alt. Az. Time Alt. Az.
29 Jul10.900:39:21SE00:39:21SE00:00:07WNWvisible
29 Jul 10.4 02:45:12 25° S 02:45:12 25° S 02:53:47 10° SSE visible
29 Jul 10.5 04:51:03 11° SW 05:01:09 17° S 05:10:34 10° SSE visible
29 Jul 9.2 20:51:21 10° NNW 20:58:19 33° NNE 20:58:19 33° NNE visible
29 Jul 10.3 23:03:13 10° WNW 23:04:09 14° WNW 23:04:09 14° WNW visible
30 Jul 10.8 01:49:28 17° SSE 01:49:28 17° SSE 01:53:03 10° SE visible
30 Jul 10.4 03:55:19 20° SSW 03:58:09 20° SSW 04:10:01 10° SSE visible
30 Jul 9.4 19:54:17 10° N 19:59:51 20° NE 20:02:24 19° NE visible
30 Jul 9.5 22:04:28 10° NW 22:08:13 31° NW 22:08:13 31° NW visible
31 Jul 10.5 02:59:31 22° S 02:59:31 22° S 03:09:14 10° SSE visible
31 Jul 10.6 05:08:18 10° SW 05:19:13 17° S 05:28:26 10° SE visible
31 Jul 8.8 21:06:15 10° NW 21:12:22 45° N 21:12:22 45° N visible
01 Aug 10.7 02:03:41 17° SSE 02:03:41 17° SSE 02:08:13 10° SSE visible
01 Aug 10.6 04:09:32 15° SSW 04:16:12 18° S 04:27:01 10° SSE visible
01 Aug 8.9 20:08:37 10° NNW 20:15:24 32° NE 20:16:33 32° NE visible
01 Aug 9.8 22:20:07 10° WNW 22:22:24 22° WNW 22:22:24 22° WNW visible
02 Aug 10.5 03:13:40 20° S 03:13:40 20° S 03:25:28 10° SSE visible
02 Aug 10.5 05:25:04 10° SSW 05:37:11 20° S 05:47:13 10° SE visible
02 Aug 9.2 19:11:52 10° N 19:16:12 17° NE 19:20:48 13° ENE visible
02 Aug 8.7 21:21:33 10° NW 21:26:38 47° NW 21:26:38 47° NW visible
03 Aug 10.7 02:17:48 18° SSE 02:17:48 18° SSE 02:23:50 10° SSE visible
03 Aug 10.6 04:23:38 12° SSW 04:34:21 19° S 04:45:18 10° SE visible
03 Aug 8.2 20:23:30 10° NW 20:30:47 52° NE 20:30:56 52° NE visible
03 Aug 10.2 22:36:15 10° WNW 22:36:47 12° WNW 22:36:47 12° WNW visible
04 Aug 11.0 01:21:55 10° SSE 01:21:55 10° SSE 01:22:08 10° SSE visible
04 Aug 10.6 03:27:45 18° SSW 03:31:05 19° S 03:42:56 10° SE visible
04 Aug 10.4 05:40:42 10° SSW 05:54:51 25° SSE 06:05:52 10° ESE visible
04 Aug 8.6 19:26:00 10° NNW 19:31:41 30° NE 19:35:18 24° ENE visible
04 Aug 9.1 21:37:17 10° WNW 21:41:09 35° WNW 21:41:09 35° WNW visible
05 Aug 10.7 02:31:52 18° S 02:31:52 18° S 02:40:22 10° SE visible
05 Aug 10.6 04:38:37 10° SSW 04:52:18 22° S 05:04:13 10° ESE visible
05 Aug 9.0 18:29:34 10° N 18:32:45 15° NE 18:37:16 10° ENE visible
05 Aug 7.9 20:38:50 10° NW 20:45:33 77° NNW 20:45:33 77° NNW visible
06 Aug 10.9 01:35:59 12° SSE 01:35:59 12° SSE 01:37:52 10° SSE visible
06 Aug 10.6 03:41:49 16° SSW 03:49:15 20° S 04:01:36 10° SE visible
06 Aug 7.9 19:40:53 10° NW 19:47:00 52° NE 19:49:59 39° E visible
06 Aug 9.6 21:53:31 10° W 21:55:51 22° W 21:55:51 22° W visible
07 Aug 10.6 02:45:57 19° S 02:45:57 19° S 02:58:18 10° SE visible
07 Aug 10.4 04:54:11 10° SSW 05:09:53 28° SSE 05:22:47 10° ESE visible
07 Aug 8.3 18:43:28 10° NNW 18:48:12 28° NE 18:54:28 13° E visible
07 Aug 8.2 20:54:38 10° WNW 21:00:20 56° WSW 21:00:20 56° WSW visible
